This demonstration page uses our WeatherBlox Daily Observations layout. Learn more.

Left ArrowRight Arrow

40.92945, -100.16068

Hourly Observations for April 14, 2016

Temp ( °F °C ) Dew Point ( °F °C ) Humidity (%) Winds ( mph kmh ) Pressure ( in mb ) Visibility ( mi km ) Precip ( " mm )
12:15 am 00:15 Clear 53 11.4 37 2.5 55 55 SSE 6 9 29.97 1015 10 16 N/A
12:35 am 00:35 Clear 51 10.6 37 2.5 58 58 S 7 11 29.97 1015 10 16 N/A
12:55 am 00:55 Clear 50 10.1 38 3.6 64 64 S 10 17 29.97 1015 10 16 N/A
1:15 am 01:15 Clear 54 12.3 40 4.6 60 60 S 14 22 29.97 1015 10 16 N/A
1:35 am 01:35 Clear 54 12.2 40 4.6 60 60 S 12 19 29.97 1015 10 16 N/A
1:55 am 01:55 Clear 53 11.8 41 5.2 64 64 S 10 17 29.97 1015 10 16 N/A
2:15 am 02:15 Clear 52 11.2 42 5.6 69 69 S 10 17 29.97 1015 10 16 N/A
2:35 am 02:35 Clear 52 11.1 43 6 71 71 S 9 15 29.97 1015 10 16 N/A
2:55 am 02:55 Clear 51 10.8 43 6.2 73 73 S 10 17 29.97 1015 10 16 N/A
3:15 am 03:15 Clear 50 10.2 43 6.2 76 76 S 10 17 29.97 1015 10 16 N/A
3:35 am 03:35 Clear 51 10.5 44 6.7 78 78 S 12 19 29.97 1015 10 16 N/A
3:55 am 03:55 Clear 50 10 44 6.9 81 81 S 9 15 29.97 1015 10 16 N/A
4:15 am 04:15 Clear 49 9.7 45 7.1 84 84 S 9 15 29.97 1015 10 16 N/A
4:35 am 04:35 Clear 50 9.9 45 7.4 85 85 S 9 15 29.97 1015 10 16 N/A
4:55 am 04:55 Clear 50 10.1 46 7.9 86 86 S 10 17 29.97 1015 10 16 N/A
5:15 am 05:15 Clear 50 9.8 46 7.7 87 87 S 10 17 29.97 1015 10 16 N/A
5:35 am 05:35 Clear 49 9.4 46 7.5 88 88 S 8 13 30.03 1017 10 16 N/A
5:55 am 05:55 Clear 48 9.1 45 7.2 88 88 S 6 9 30.00 1016 10 16 N/A
6:15 am 06:15 Clear 48 9 46 7.5 90 90 S 7 11 30.00 1016 10 16 N/A
6:35 am 06:35 Mostly Cloudy 49 9.6 47 8.4 92 92 S 9 15 30.03 1017 10 16 N/A
6:55 am 06:55 Cloudy 50 10 47 8.6 91 91 S 13 20 30.00 1016 7 11 N/A
7:15 am 07:15 Cloudy with Mist and Fog 50 9.8 48 8.7 93 93 S 12 19 30.03 1017 3 5 N/A
7:35 am 07:35 Cloudy with Mist and Fog 50 10 48 8.8 92 92 S 10 17 30.00 1016 2 3 N/A
7:55 am 07:55 Cloudy with Mist and Fog 50 10.2 48 9.1 93 93 S 10 17 30.00 1016 3 5 N/A
8:15 am 08:15 Cloudy with Mist and Fog 51 10.6 49 9.5 93 93 S 9 15 30.00 1016 4 6 N/A
8:35 am 08:35 Cloudy with Mist and Fog 52 11 49 9.5 91 91 S 14 22 30.00 1016 5 8 N/A
8:55 am 08:55 Cloudy 53 11.5 49 9.6 88 88 S 13 20 30.00 1016 7 11 N/A
9:15 am 09:15 Cloudy 53 11.7 49 9.6 87 87 S 14 22 30.00 1016 10 16 N/A
9:35 am 09:35 Cloudy 54 12.1 50 9.8 86 86 S 15 24 30.00 1016 10 16 N/A
9:55 am 09:55 Cloudy 55 12.8 50 10 83 83 S 15 24 30.00 1016 10 16 N/A
10:15 am 10:15 Cloudy 55 13 50 10 82 82 S 16 26 30.00 1016 10 16 N/A
10:35 am 10:35 Cloudy 56 13.5 51 10.3 81 81 S 16 26 29.94 1014 10 16 N/A
10:55 am 10:55 Cloudy 58 14.2 51 10.4 78 78 S 16 26 29.94 1014 10 16 N/A
11:15 am 11:15 Cloudy 58 14.3 51 10.4 78 78 S 16 26 29.94 1014 10 16 N/A
11:35 am 11:35 Cloudy 58 14.5 51 10.3 76 76 S 17 28 29.94 1014 10 16 N/A
11:55 am 11:55 Cloudy 60 15.3 51 10.3 72 72 S 17 28 29.94 1014 10 16 N/A
12:15 pm 12:15 Cloudy 61 16 51 10.7 71 71 S 20 31 29.94 1014 10 16 N/A
12:35 pm 12:35 Mostly Cloudy 62 16.7 51 10.7 68 68 S 18 30 29.88 1012 10 16 N/A
12:55 pm 12:55 Partly Cloudy 64 17.8 51 10.5 63 63 S 16 26 29.88 1012 10 16 N/A
1:15 pm 13:15 Partly Cloudy 66 19.1 51 10.5 58 58 S 22 35 29.83 1010 10 16 N/A
1:35 pm 13:35 Sunny 68 20 50 10.2 53 53 S 22 35 29.83 1010 10 16 N/A
1:55 pm 13:55 Sunny 69 20.5 50 10.2 52 52 SSE 22 35 29.83 1010 10 16 N/A
2:15 pm 14:15 Sunny 70 21 51 10.3 51 51 SSE 21 33 29.80 1009 10 16 N/A
2:35 pm 14:35 Sunny 70 21.2 49 9.7 48 48 S 20 31 29.80 1009 10 16 N/A
2:55 pm 14:55 Partly Cloudy 72 22 50 9.9 46 46 S 21 33 29.74 1007 10 16 N/A
3:15 pm 15:15 Partly Cloudy 71 21.9 49 9.5 45 45 S 25 41 29.74 1007 10 16 N/A
3:35 pm 15:35 Sunny 72 22.1 49 9.6 45 45 S 22 35 29.74 1007 10 16 N/A
3:55 pm 15:55 Sunny 72 22.3 49 9.4 44 44 SSE 26 43 29.71 1006 10 16 N/A
4:15 pm 16:15 Partly Cloudy 72 22.3 49 9.3 44 44 SSE 24 39 29.71 1006 10 16 N/A
4:35 pm 16:35 Partly Cloudy 72 22.4 48 8.8 42 42 SSE 25 41 29.71 1006 10 16 N/A
4:55 pm 16:55 Sunny 73 22.5 48 8.9 42 42 S 25 41 29.68 1005 10 16 N/A
5:15 pm 17:15 Sunny 73 22.6 48 8.7 41 41 SSE 26 43 29.68 1005 10 16 N/A
5:35 pm 17:35 Sunny 73 22.5 48 8.7 41 41 SSE 24 39 29.68 1005 10 16 N/A
5:55 pm 17:55 Sunny 72 22.2 47 8.4 41 41 SSE 23 37 29.68 1005 10 16 N/A
6:15 pm 18:15 Sunny 71 21.9 46 8 41 41 S 24 39 29.68 1005 10 16 N/A
6:35 pm 18:35 Sunny 71 21.6 47 8.1 42 42 S 25 41 29.68 1005 10 16 N/A
6:55 pm 18:55 Sunny 70 21.1 47 8.2 44 44 SSE 24 39 29.65 1004 10 16 N/A
7:15 pm 19:15 Sunny 69 20.8 46 8 44 44 SSE 26 43 29.68 1005 10 16 N/A
7:35 pm 19:35 Sunny 68 20.2 46 8 46 46 SSE 22 35 29.68 1005 10 16 N/A
7:55 pm 19:55 Sunny 67 19.5 46 8 48 48 SSE 25 41 29.68 1005 10 16 N/A
8:15 pm 20:15 Sunny 66 18.7 46 8 50 50 SSE 20 31 29.68 1005 10 16 N/A
8:35 pm 20:35 Clear 65 18.2 46 8 52 52 SSE 18 30 29.68 1005 10 16 N/A
8:55 pm 20:55 Clear 64 17.8 46 7.7 52 52 SSE 20 31 29.68 1005 10 16 N/A
9:15 pm 21:15 Clear 64 17.5 46 7.6 52 52 SSE 20 31 29.68 1005 10 16 N/A
9:35 pm 21:35 Clear 63 17.1 46 7.6 54 54 SSE 20 31 29.71 1006 10 16 N/A
9:55 pm 21:55 Clear 62 16.8 46 7.5 54 54 SE 17 28 29.71 1006 10 16 N/A
10:15 pm 22:15 Clear 62 16.4 46 7.7 57 57 SSE 18 30 29.71 1006 10 16 N/A
10:35 pm 22:35 Clear 61 15.9 46 7.7 58 58 SSE 17 28 29.71 1006 10 16 N/A
10:55 pm 22:55 Clear 60 15.5 46 7.8 60 60 SE 18 30 29.71 1006 10 16 N/A
11:15 pm 23:15 Clear 59 15.2 46 7.8 62 62 SSE 21 33 29.71 1006 10 16 N/A
11:35 pm 23:35 Clear 59 15 46 8 63 63 SSE 22 35 29.71 1006 10 16 N/A
11:55 pm 23:55 Clear 59 14.9 47 8.2 64 64 SSE 22 35 29.71 1006 10 16 N/A

Powered by AerisWeather